Temp
-25 -25 -25 -24 -24 -23 -23 -23 -23 -23 -23 -25 -26 -26 -25 -25 -25 -24 -24 -24 -24 -24 -24 -24 -24 -24 -24 -24 -25 -25 -25 -25 -26 -27 -27 -27 -27 -27 -27 -27 -27 -26 -26 -26 -26 -26 -26 -26 -26 -26 -26 -25 -25 -25
-26 -26 -25 -25 -25 -24 -24 -24 -24 -24 -25 -26 -26 -26 -25 -25 -25 -25 -25 -24 -25 -25 -25 -25 -25 -24 -25 -25 -25 -25 -26 -26 -27 -27 -27 -27 -27 -27 -27 -27 -26 -27 -27 -26 -26 -26 -26 -26 -25 -25 -25 -25 -25 -24
-27 -26 -26 -26 -26 -25 -25 -25 -25 -25 -26 -27 -26 -26 -26 -25 -25 -25 -25 -25 -25 -25 -25 -25 -25 -25 -25 -25 -25 -25 -26 -26 -27 -27 -27 -27 -27 -27 -27 -27 -26 -26 -26 -26 -27 -26 -26 -26 -25 -25 -25 -25 -25 -24
-28 -27 -26 -26 -26 -26 -26 -26 -25 -26 -27 -26 -27 -26 -26 -25 -25 -25 -25 -25 -25 -25 -25 -25 -25 -25 -25 -25 -25 -25 -26 -26 -27 -27 -27 -27 -27 -27 -26 -27 -26 -26 -26 -26 -26 -26 -26 -26 -26 -25 -25 -25 -24 -24
-29 -28 -27 -27 -27 -26 -26 -26 -26 -26 -27 -27 -27 -27 -26 -26 -26 -26 -25 -25 -25 -25 -25 -25 -25 -25 -25 -26 -25 -26 -26 -27 -27 -27 -27 -27 -27 -26 -26 -27 -27 -26 -26 -26 -26 -26 -25 -26 -25 -25 -25 -24 -24 -24
-29 -28 -28 -28 -27 -27 -27 -27 -27 -27 -27 -28 -27 -27 -27 -26 -26 -26 -26 -26 -26 -26 -26 -26 -26 -26 -25 -26 -26 -26 -27 -27 -28 -28 -28 -27 -26 -26 -26 -26 -26 -26 -26 -26 -26 -25 -25 -25 -25 -25 -25 -25 -24 -24
-29 -29 -29 -28 -28 -28 -28 -27 -27 -28 -28 -27 -27 -28 -27 -26 -26 -26 -26 -26 -26 -26 -26 -26 -26 -26 -26 -26 -26 -26 -27 -28 -29 -29 -28 -27 -27 -26 -26 -26 -26 -26 -26 -26 -26 -25 -25 -25 -25 -25 -24 -24 -24 -24
-29 -29 -29 -29 -29 -29 -28 -28 -28 -28 -28 -27 -27 -28 -27 -27 -27 -26 -27 -26 -26 -26 -26 -26 -26 -26 -26 -26 -26 -27 -28 -28 -29 -28 -28 -28 -27 -27 -26 -26 -26 -26 -26 -26 -25 -25 -25 -25 -24 -24 -24 -24 -24 -24
-29 -29 -29 -29 -30 -29 -28 -28 -28 -28 -28 -27 -27 -27 -27 -27 -27 -27 -27 -27 -26 -27 -26 -27 -26 -26 -26 -27 -27 -27 -28 -28 -28 -28 -28 -28 -28 -27 -26 -26 -26 -26 -26 -25 -25 -25 -25 -25 -25 -25 -25 -25 -25 -25
-30 -30 -30 -30 -29 -29 -29 -28 -28 -28 -27 -27 -27 -28 -28 -28 -27 -27 -27 -27 -27 -27 -27 -27 -27 -27 -27 -27 -27 -27 -28 -28 -28 -28 -28 -28 -27 -27 -26 -26 -26 -26 -26 -26 -25 -25 -25 -25 -25 -25 -25 -25 -25 -25
-31 -30 -30 -30 -30 -29 -29 -29 -29 -28 -28 -28 -28 -28 -28 -28 -28 -28 -27 -27 -27 -27 -27 -27 -27 -27 -27 -27 -28 -28 -28 -28 -28 -28 -28 -28 -27 -27 -27 -26 -26 -26 -26 -26 -26 -26 -26 -26 -26 -25 -25 -25 -25 -25
-31 -31 -31 -31 -30 -29 -29 -29 -29 -29 -29 -29 -29 -29 -29 -28 -28 -28 -27 -27 -27 -27 -27 -27 -27 -27 -27 -28 -28 -28 -28 -28 -28 -28 -28 -27 -28 -27 -27 -27 -27 -26 -26 -26 -26 -26 -26 -26 -25 -25 -25 -25 -25 -25
-32 -32 -31 -31 -30 -30 -29 -29 -29 -29 -29 -29 -29 -29 -29 -28 -28 -28 -27 -28 -28 -28 -28 -28 -28 -28 -28 -28 -28 -28 -28 -28 -28 -28 -28 -28 -28 -27 -27 -27 -27 -27 -26 -26 -26 -26 -26 -26 -25 -25 -25 -25 -25 -25
-32 -32 -32 -32 -31 -31 -30 -30 -30 -30 -29 -29 -29 -29 -29 -28 -28 -28 -28 -28 -28 -29 -28 -28 -28 -28 -28 -28 -28 -28 -28 -28 -28 -28 -28 -28 -28 -28 -27 -27 -27 -26 -26 -26 -26 -26 -26 -26 -26 -26 -25 -25 -25 -26
-32 -32 -32 -32 -32 -31 -31 -31 -31 -30 -30 -30 -29 -29 -29 -29 -29 -29 -29 -29 -29 -29 -29 -29 -29 -29 -29 -29 -28 -28 -29 -28 -28 -28 -28 -28 -28 -27 -27 -27 -27 -26 -26 -26 -26 -26 -26 -25 -25 -26 -26 -26 -26 -26
-33 -32 -32 -32 -32 -32 -32 -32 -31 -31 -31 -30 -30 -30 -29 -29 -29 -29 -29 -29 -29 -29 -29 -29 -29 -29 -29 -29 -29 -29 -29 -29 -28 -28 -28 -28 -28 -28 -27 -27 -27 -26 -26 -26 -26 -26 -26 -26 -26 -26 -26 -26 -26 -26
-33 -32 -32 -33 -33 -33 -33 -33 -32 -31 -31 -30 -30 -30 -30 -30 -30 -30 -30 -30 -30 -30 -30 -30 -29 -29 -29 -29 -29 -29 -29 -29 -29 -29 -29 -28 -28 -28 -27 -27 -27 -27 -26 -26 -26 -26 -26 -26 -26 -26 -26 -26 -26 -25
-34 -33 -34 -34 -34 -34 -34 -33 -32 -32 -31 -30 -30 -30 -30 -30 -31 -31 -30 -30 -30 -30 -30 -30 -29 -29 -29 -29 -29 -29 -29 -29 -29 -29 -28 -28 -28 -28 -27 -27 -27 -27 -26 -26 -26 -26 -26 -26 -26 -26 -26 -26 -25 -25
-34 -34 -34 -34 -34 -34 -33 -32 -32 -32 -31 -31 -31 -31 -31 -31 -31 -31 -31 -30 -30 -30 -30 -30 -29 -29 -29 -29 -29 -29 -29 -29 -29 -29 -29 -28 -28 -27 -27 -27 -27 -27 -27 -27 -27 -27 -26 -26 -26 -26 -26 -27 -26 -26
-35 -34 -34 -34 -34 -34 -33 -33 -32 -31 -31 -31 -32 -32 -32 -31 -31 -31 -30 -30 -30 -30 -29 -29 -29 -29 -29 -29 -29 -29 -29 -29 -29 -29 -29 -28 -28 -27 -27 -27 -27 -27 -27 -27 -27 -27 -26 -26 -26 -27 -27 -27 -27 -27
-34 -34 -34 -34 -34 -34 -33 -32 -32 -31 -31 -31 -32 -32 -31 -31 -31 -30 -30 -30 -29 -29 -29 -29 -29 -29 -29 -29 -29 -29 -29 -29 -29 -28 -28 -28 -28 -28 -28 -27 -27 -27 -27 -27 -27 -27 -27 -27 -27 -27 -27 -27 -27 -27
-35 -35 -35 -34 -34 -34 -33 -33 -32 -31 -31 -31 -31 -31 -31 -31 -30 -30 -30 -29 -29 -30 -29 -29 -29 -29 -29 -29 -29 -29 -29 -29 -28 -28 -27 -27 -27 -27 -27 -27 -27 -27 -27 -27 -27 -27 -27 -28 -28 -28 -27 -27 -27 -27
-34 -34 -34 -34 -33 -32 -32 -32 -32 -31 -31 -31 -31 -31 -31 -30 -30 -29 -29 -29 -29 -29 -29 -29 -29 -29 -29 -29 -29 -29 -29 -28 -28 -28 -28 -28 -27 -27 -27 -27 -27 -27 -28 -28 -28 -28 -28 -28 -28 -28 -28 -27 -27 -27
-34 -34 -33 -33 -33 -32 -31 -31 -31 -31 -31 -31 -30 -30 -30 -30 -30 -29 -29 -29 -29 -29 -29 -29 -29 -29 -29 -29 -29 -28 -28 -28 -28 -28 -28 -28 -28 -28 -28 -28 -28 -28 -28 -28 -28 -28 -28 -29 -29 -29 -29 -29 -29 -29
-33 -32 -32 -32 -31 -31 -31 -31 -31 -31 -30 -30 -30 -30 -30 -29 -29 -29 -29 -29 -29 -29 -29 -29 -28 -28 -28 -28 -28 -28 -28 -28 -28 -28 -28 -28 -28 -28 -28 -28 -29 -28 -29 -29 -29 -30 -30 -30 -30 -30 -30 -30 -30 -30
-31 -31 -31 -31 -31 -31 -31 -31 -31 -31 -31 -30 -30 -30 -30 -29 -29 -29 -29 -29 -29 -29 -28 -28 -28 -28 -28 -28 -28 -28 -28 -28 -28 -28 -28 -28 -28 -29 -29 -29 -30 -30 -30 -30 -30 -30 -30 -30 -30 -30 -31 -31 -31 -31
-30 -30 -30 -31 -31 -31 -31 -31 -30 -30 -30 -30 -30 -29 -29 -29 -29 -29 -29 -29 -29 -28 -28 -28 -28 -28 -28 -28 -28 -28 -28 -28 -28 -29 -29 -30 -30 -30 -30 -30 -30 -30 -30 -30 -30 -31 -31 -31 -31 -32 -32 -32 -32 -32
-30 -30 -30 -30 -30 -30 -30 -30 -30 -30 -30 -30 -29 -29 -29 -29 -29 -29 -29 -28 -28 -28 -28 -28 -28 -28 -28 -28 -28 -28 -29 -29 -29 -30 -30 -30 -30 -30 -30 -30 -30 -30 -31 -31 -32 -32 -33 -33 -33 -34 -34 -34 -34 -34
-30 -30 -30 -30 -30 -30 -30 -30 -30 -30 -30 -29 -29 -29 -29 -29 -29 -28 -28 -28 -28 -28 -29 -28 -28 -28 -28 -28 -28 -29 -29 -30 -30 -30 -31 -31 -30 -30 -30 -30 -31 -32 -33 -33 -34 -34 -35 -35 -35 -35 -35 -35 -35 -35
-30 -29 -29 -29 -29 -29 -29 -29 -29 -29 -29 -29 -29 -29 -29 -29 -28 -28 -28 -28 -29 -29 -29 -29 -29 -28 -28 -29 -29 -30 -30 -30 -31 -31 -31 -31 -31 -31 -31 -31 -32 -33 -34 -34 -35 -35 -36 -36 -36 -36 -36 -36 -36 -36
-30 -30 -29 -29 -29 -29 -29 -29 -29 -29 -29 -29 -29 -28 -28 -28 -28 -28 -29 -29 -29 -29 -29 -29 -29 -29 -29 -29 -30 -30 -31 -31 -31 -31 -31 -31 -31 -31 -31 -32 -34 -34 -35 -35 -36 -36 -36 -36 -36 -36 -36 -36 -36 -37
-29 -29 -29 -29 -29 -29 -29 -29 -28 -28 -28 -28 -28 -28 -28 -28 -29 -29 -29 -29 -29 -29 -29 -29 -29 -29 -29 -30 -30 -31 -31 -31 -31 -31 -31 -31 -31 -31 -32 -33 -35 -35 -36 -36 -36 -37 -37 -37 -37 -37 -37 -37 -37 -37
-29 -29 -29 -29 -28 -28 -28 -28 -28 -28 -28 -28 -28 -28 -29 -29 -29 -29 -29 -29 -29 -29 -29 -29 -29 -30 -30 -30 -30 -31 -31 -31 -32 -32 -32 -31 -31 -32 -33 -34 -35 -36 -36 -37 -37 -37 -37 -37 -37 -37 -37 -38 -38 -38
Height
5414 5421 5430 5438 5446 5453 5460 5467 5473 5481 5487 5495 5503 5511 5519 5526 5532 5538 5543 5547 5550 5553 5555 5556 5556 5555 5554 5551 5548 5546 5545 5540 5538 5540 5542 5543 5543 5543 5541 5540 5539 5537 5535 5533 5533 5531 5530 5528 5527 5526 5526 5523 5522 5522
5407 5416 5424 5431 5439 5447 5454 5462 5469 5476 5484 5492 5500 5508 5517 5523 5528 5535 5539 5544 5547 5549 5551 5552 5551 5551 5550 5546 5545 5543 5542 5539 5537 5539 5542 5542 5542 5542 5541 5540 5538 5537 5535 5533 5532 5531 5529 5527 5526 5524 5522 5521 5521 5521
5402 5409 5417 5425 5433 5440 5448 5456 5463 5471 5480 5488 5496 5505 5513 5520 5526 5530 5536 5540 5543 5546 5547 5548 5548 5548 5545 5543 5541 5541 5539 5538 5537 5538 5539 5540 5541 5541 5540 5540 5538 5536 5534 5533 5532 5530 5528 5527 5525 5524 5523 5523 5522 5522
5396 5403 5411 5419 5427 5435 5443 5451 5459 5467 5475 5485 5493 5501 5511 5516 5523 5528 5531 5537 5540 5542 5544 5545 5544 5543 5541 5539 5537 5537 5536 5535 5535 5535 5536 5537 5538 5539 5539 5538 5537 5535 5533 5532 5530 5529 5528 5526 5526 5525 5524 5523 5522 5522
5391 5399 5405 5413 5421 5428 5438 5446 5455 5462 5473 5482 5489 5498 5507 5513 5519 5524 5527 5532 5536 5540 5540 5540 5540 5540 5538 5536 5534 5533 5532 5531 5530 5530 5531 5533 5535 5537 5537 5537 5535 5533 5531 5530 5528 5528 5527 5526 5526 5524 5523 5522 5521 5520
5388 5395 5402 5409 5417 5425 5433 5441 5450 5458 5469 5477 5486 5494 5502 5509 5516 5518 5524 5529 5532 5534 5536 5537 5537 5536 5534 5533 5530 5528 5526 5525 5524 5524 5526 5528 5530 5533 5534 5535 5534 5530 5529 5527 5527 5526 5525 5524 5524 5523 5522 5520 5519 5517
5385 5392 5399 5406 5414 5421 5430 5437 5446 5456 5464 5474 5482 5490 5498 5504 5511 5515 5522 5525 5528 5530 5532 5533 5532 5532 5530 5528 5526 5524 5521 5519 5517 5517 5520 5523 5526 5529 5531 5532 5531 5529 5527 5526 5525 5524 5524 5523 5522 5521 5520 5518 5515 5513
5380 5389 5397 5404 5411 5419 5426 5435 5443 5450 5460 5469 5478 5485 5494 5501 5507 5512 5516 5520 5523 5526 5528 5528 5528 5528 5526 5524 5523 5521 5518 5516 5515 5515 5518 5521 5523 5526 5528 5528 5528 5527 5525 5524 5523 5522 5521 5521 5520 5518 5516 5514 5512 5510
5374 5385 5394 5401 5408 5416 5424 5431 5440 5449 5457 5465 5474 5482 5491 5497 5503 5508 5513 5516 5519 5524 5523 5523 5524 5524 5522 5522 5521 5519 5517 5516 5516 5516 5518 5520 5521 5523 5525 5525 5525 5525 5523 5521 5521 5520 5519 5518 5517 5515 5513 5511 5508 5505
5369 5380 5391 5398 5406 5414 5421 5428 5437 5446 5455 5463 5472 5479 5485 5492 5498 5504 5508 5512 5515 5518 5520 5520 5520 5519 5520 5519 5518 5518 5516 5516 5517 5518 5518 5519 5520 5520 5521 5521 5521 5521 5520 5519 5517 5517 5515 5514 5512 5511 5509 5507 5504 5501
5363 5375 5386 5394 5402 5410 5419 5426 5434 5443 5451 5459 5467 5474 5481 5486 5493 5498 5503 5508 5512 5515 5516 5516 5516 5516 5516 5516 5516 5515 5515 5515 5516 5517 5516 5517 5517 5517 5518 5518 5518 5517 5516 5515 5514 5513 5511 5509 5508 5505 5504 5502 5499 5496
5356 5368 5380 5389 5397 5406 5416 5425 5435 5443 5449 5457 5464 5470 5476 5482 5488 5494 5498 5503 5508 5510 5511 5511 5511 5511 5511 5511 5512 5512 5512 5512 5513 5514 5513 5513 5514 5514 5514 5514 5514 5513 5513 5511 5509 5508 5507 5505 5503 5501 5499 5497 5494 5491
5349 5362 5373 5383 5392 5402 5414 5423 5428 5434 5442 5448 5455 5463 5471 5477 5483 5489 5494 5500 5502 5503 5505 5506 5506 5506 5506 5507 5507 5507 5506 5508 5509 5510 5510 5511 5510 5510 5510 5510 5509 5509 5508 5506 5504 5503 5501 5500 5498 5496 5493 5491 5488 5485
5343 5355 5368 5379 5389 5399 5410 5418 5423 5430 5437 5445 5453 5461 5467 5473 5479 5485 5489 5492 5495 5496 5498 5499 5499 5500 5500 5501 5501 5501 5500 5501 5503 5505 5506 5505 5505 5505 5505 5506 5505 5504 5503 5501 5500 5499 5497 5495 5493 5490 5487 5484 5481 5477
5337 5350 5362 5374 5385 5396 5406 5413 5419 5427 5434 5442 5450 5457 5464 5469 5474 5479 5483 5486 5488 5489 5492 5493 5494 5495 5495 5495 5495 5495 5494 5495 5498 5500 5501 5501 5500 5500 5499 5499 5499 5498 5497 5496 5494 5493 5490 5488 5486 5484 5480 5476 5471 5467
5331 5343 5357 5370 5382 5393 5401 5408 5415 5423 5430 5438 5446 5454 5460 5465 5469 5473 5476 5479 5483 5485 5486 5488 5489 5490 5491 5491 5490 5489 5490 5492 5494 5496 5495 5495 5495 5495 5494 5494 5493 5492 5492 5490 5488 5487 5484 5482 5479 5475 5471 5467 5463 5458
5325 5343 5357 5369 5381 5389 5397 5406 5412 5419 5427 5435 5443 5449 5454 5459 5463 5467 5470 5474 5476 5479 5481 5483 5485 5486 5487 5486 5486 5486 5488 5489 5490 5491 5490 5490 5489 5489 5489 5488 5487 5486 5484 5483 5481 5479 5477 5474 5470 5466 5462 5457 5453 5449
5328 5342 5356 5368 5376 5385 5394 5401 5410 5417 5426 5434 5439 5444 5448 5453 5457 5460 5464 5467 5471 5473 5476 5479 5480 5481 5482 5483 5483 5484 5484 5484 5484 5485 5484 5485 5485 5484 5482 5481 5480 5479 5478 5476 5474 5471 5468 5464 5461 5457 5452 5447 5442 5438
5333 5345 5358 5368 5378 5386 5393 5400 5408 5415 5422 5429 5435 5440 5444 5448 5452 5455 5459 5463 5466 5469 5471 5474 5475 5476 5477 5478 5478 5478 5478 5478 5478 5478 5478 5479 5478 5477 5476 5475 5474 5472 5470 5468 5464 5461 5459 5455 5451 5446 5442 5438 5433 5429
5342 5354 5365 5374 5381 5387 5393 5399 5406 5412 5419 5425 5432 5437 5442 5447 5450 5452 5455 5460 5463 5465 5468 5471 5472 5472 5471 5471 5471 5471 5470 5470 5472 5472 5473 5473 5471 5471 5469 5467 5465 5462 5460 5458 5455 5452 5448 5445 5441 5436 5433 5430 5426 5423
5350 5359 5369 5377 5382 5387 5393 5399 5404 5410 5417 5422 5429 5436 5441 5445 5448 5450 5454 5457 5460 5463 5466 5467 5467 5466 5465 5465 5465 5464 5464 5465 5465 5466 5467 5467 5466 5464 5461 5459 5457 5454 5451 5448 5445 5441 5437 5433 5430 5427 5423 5420 5417 5415
5355 5364 5372 5377 5382 5388 5394 5400 5407 5411 5418 5424 5430 5436 5440 5443 5446 5449 5451 5455 5458 5461 5462 5462 5461 5460 5459 5458 5458 5458 5459 5460 5460 5460 5459 5458 5457 5455 5452 5449 5447 5444 5440 5437 5433 5429 5425 5422 5419 5416 5412 5409 5406 5403
5361 5366 5373 5379 5384 5389 5396 5401 5407 5413 5419 5426 5431 5436 5440 5443 5445 5448 5451 5454 5455 5456 5457 5456 5456 5455 5454 5454 5453 5453 5453 5454 5454 5453 5452 5450 5447 5445 5442 5439 5435 5431 5427 5424 5420 5417 5413 5409 5406 5403 5399 5396 5393 5390
5366 5371 5377 5382 5388 5394 5400 5406 5412 5418 5423 5428 5432 5436 5439 5441 5444 5446 5450 5451 5451 5451 5451 5451 5451 5451 5451 5450 5449 5449 5449 5448 5447 5446 5444 5442 5439 5435 5432 5428 5423 5419 5415 5411 5407 5402 5399 5395 5391 5388 5384 5381 5379 5376
5375 5380 5385 5390 5395 5401 5406 5412 5417 5421 5425 5429 5432 5435 5437 5439 5441 5444 5446 5447 5447 5447 5446 5447 5447 5447 5447 5445 5445 5444 5443 5442 5440 5437 5435 5432 5429 5425 5421 5416 5410 5406 5402 5397 5393 5389 5385 5381 5377 5374 5370 5367 5364 5362
5385 5390 5394 5398 5403 5407 5411 5415 5419 5422 5425 5428 5430 5433 5434 5436 5439 5441 5443 5442 5442 5443 5442 5442 5442 5442 5442 5440 5439 5438 5436 5435 5432 5429 5426 5422 5417 5413 5409 5405 5400 5394 5389 5384 5379 5375 5370 5366 5362 5359 5355 5352 5349 5346
5393 5397 5400 5404 5408 5411 5414 5417 5419 5421 5423 5426 5428 5429 5431 5433 5435 5437 5437 5438 5438 5438 5438 5438 5437 5436 5436 5434 5433 5431 5429 5427 5423 5420 5416 5412 5408 5403 5398 5393 5388 5382 5375 5370 5364 5359 5354 5350 5346 5342 5339 5336 5333 5331
5397 5400 5403 5406 5409 5411 5414 5416 5418 5420 5422 5423 5425 5426 5428 5430 5432 5432 5432 5433 5433 5433 5433 5433 5432 5431 5430 5429 5426 5424 5421 5418 5415 5412 5408 5404 5399 5394 5388 5381 5374 5367 5359 5353 5347 5342 5338 5334 5331 5328 5325 5323 5321 5318
5399 5402 5403 5405 5407 5409 5411 5414 5415 5417 5419 5420 5422 5423 5425 5426 5427 5428 5428 5428 5429 5429 5428 5428 5427 5426 5424 5422 5419 5417 5414 5411 5408 5405 5401 5395 5389 5384 5377 5368 5360 5352 5344 5338 5333 5329 5326 5322 5320 5317 5315 5313 5310 5308
5396 5398 5400 5402 5404 5407 5409 5410 5412 5413 5415 5417 5418 5419 5420 5421 5422 5423 5423 5424 5424 5424 5424 5423 5422 5420 5418 5416 5413 5411 5408 5405 5401 5397 5393 5388 5382 5374 5366 5356 5347 5340 5333 5328 5324 5320 5316 5314 5311 5308 5306 5304 5302 5299
5392 5394 5396 5398 5400 5403 5404 5406 5407 5409 5410 5412 5413 5414 5415 5416 5417 5418 5419 5419 5420 5419 5419 5418 5417 5415 5413 5410 5407 5404 5401 5398 5394 5390 5385 5379 5372 5364 5355 5345 5337 5330 5325 5320 5316 5312 5309 5306 5304 5301 5299 5296 5294 5292
5386 5388 5390 5392 5395 5397 5398 5400 5401 5403 5405 5406 5408 5409 5411 5412 5413 5414 5415 5415 5415 5415 5414 5413 5412 5410 5408 5405 5401 5397 5394 5391 5387 5382 5377 5371 5364 5355 5345 5336 5330 5324 5319 5315 5311 5307 5304 5301 5298 5295 5292 5290 5287 5285
5378 5381 5384 5385 5388 5390 5392 5393 5396 5397 5399 5401 5402 5404 5406 5407 5408 5409 5410 5410 5410 5410 5409 5408 5406 5404 5402 5399 5395 5391 5388 5384 5379 5374 5369 5363 5355 5346 5337 5329 5323 5318 5314 5310 5306 5303 5299 5296 5293 5290 5287 5284 5281 5278
Wind_Speed
35 34 36 36 36 33 32 31 30 31 35 43 39 38 33 29 26 22 17 14 12 9 7 4 5 9 12 15 17 18 17 18 12 17 9 6 5 4 7 4 7 9 6 5 7 7 4 8 10 3 8 11 5 9
34 33 34 34 36 36 34 33 32 35 43 45 41 37 31 29 27 21 17 13 10 9 6 5 5 9 13 14 16 18 13 14 6 16 10 7 5 3 6 8 9 12 5 5 9 10 8 10 11 11 12 5 1 6
36 32 31 32 34 34 33 34 35 40 49 45 41 36 33 30 26 22 18 12 10 9 7 5 6 10 13 15 16 17 12 10 6 11 11 8 7 4 5 6 8 10 7 6 8 10 10 8 10 8 9 11 9 3
35 34 34 32 32 34 34 36 42 53 49 45 41 37 34 30 26 22 17 12 10 9 8 6 7 11 14 15 16 16 11 13 9 14 13 10 10 8 8 8 11 9 7 9 8 8 10 8 7 8 8 5 8 9
34 34 33 32 33 35 36 40 49 52 48 44 42 38 34 31 27 22 17 14 11 10 8 6 8 10 14 15 17 18 14 14 15 13 17 14 11 10 9 9 13 10 8 8 7 6 8 9 6 7 7 8 8 13
34 32 32 34 36 39 41 44 53 54 50 45 43 40 36 31 27 23 19 14 13 11 9 7 8 11 14 15 18 20 18 18 15 16 16 17 13 13 12 9 13 14 12 9 8 7 7 9 9 10 13 15 16 17
39 34 32 35 40 40 47 49 52 52 49 48 44 39 35 33 29 24 19 16 14 11 10 9 8 11 15 17 20 21 19 16 13 12 14 17 13 15 13 12 14 13 11 10 8 7 7 10 9 11 14 15 17 18
43 37 35 34 37 40 41 50 56 57 51 47 43 40 37 32 29 26 20 17 14 13 11 10 8 12 14 16 19 19 15 10 3 4 9 12 14 16 12 15 15 16 11 9 9 8 8 9 12 14 15 17 18 20
47 42 38 36 35 38 44 45 47 47 49 46 43 40 35 32 29 26 21 19 16 14 11 11 9 13 14 17 17 17 10 3 3 2 4 8 11 11 13 15 19 17 12 10 9 9 9 11 12 14 16 19 21 22
50 47 43 40 38 36 38 42 45 51 49 42 40 37 35 33 29 27 24 22 18 14 11 13 10 14 15 17 16 13 7 6 3 2 4 5 7 9 12 13 15 15 13 12 12 12 14 15 17 19 19 19 20 22
54 53 51 47 45 41 40 40 42 42 42 42 40 36 36 33 32 29 25 21 18 14 12 15 14 15 16 18 15 12 9 8 7 5 5 3 6 10 13 13 15 16 17 16 15 17 18 19 20 20 20 21 23 25
59 57 58 54 51 46 40 40 39 38 35 35 36 37 35 33 32 28 24 21 17 14 13 16 16 19 21 21 17 15 16 15 12 9 9 11 11 14 15 15 17 16 17 17 17 18 18 19 20 21 23 24 26 28
60 61 60 61 55 49 42 39 40 40 42 43 41 39 37 35 31 26 22 19 16 16 16 17 21 24 25 24 20 18 19 22 19 13 13 13 16 17 18 18 20 18 19 20 20 23 22 22 24 26 28 29 31 33
57 60 61 59 59 53 44 41 40 39 39 39 37 36 33 31 28 24 22 21 19 18 19 20 22 24 24 22 20 19 20 21 24 19 15 17 20 21 20 20 21 21 21 21 20 23 25 26 27 29 31 34 35 35
58 56 57 60 57 52 46 45 45 41 38 36 34 33 30 30 28 26 24 21 20 20 19 22 21 21 18 19 19 20 19 19 19 17 18 17 18 18 19 20 21 22 22 22 23 26 27 30 30 32 32 34 35 33
59 59 53 51 49 48 47 42 40 42 43 41 38 35 33 31 29 27 25 22 21 20 20 18 18 17 17 18 18 15 11 11 12 13 17 17 18 17 17 19 20 21 22 24 25 28 30 31 31 32 34 36 36 36
54 57 53 50 49 47 45 41 41 39 36 36 34 32 31 29 28 28 28 25 23 23 21 17 18 17 16 16 10 11 11 13 13 17 21 23 22 21 19 18 18 20 22 26 29 31 32 33 35 37 39 39 37 36
48 54 56 57 53 46 47 46 43 40 38 36 35 34 34 33 30 28 24 23 23 20 19 22 22 20 20 15 13 13 13 18 20 22 24 23 23 20 19 19 20 23 26 29 31 31 32 35 37 39 40 40 39 37
48 59 57 54 52 47 43 41 39 35 34 33 33 30 28 25 22 22 25 21 19 15 20 23 22 20 21 19 18 23 25 18 21 24 23 22 23 23 23 25 25 26 27 30 32 33 35 37 39 39 37 35 36 31
49 54 53 43 42 38 39 40 36 34 32 28 27 28 24 18 16 19 21 21 18 19 21 19 19 20 20 21 22 25 32 32 30 28 26 25 26 27 27 29 30 31 32 33 34 36 38 39 40 36 33 33 31 29
53 50 44 38 37 37 35 35 33 29 29 31 34 31 25 20 14 15 18 19 19 16 13 16 18 19 20 22 21 23 29 33 32 28 26 25 26 27 29 31 33 35 36 37 39 40 41 38 35 34 34 33 33 33
48 48 49 51 47 41 33 27 24 26 29 29 27 23 19 14 14 16 19 18 15 14 17 19 17 16 16 19 21 21 23 25 26 27 27 28 28 30 32 35 36 38 40 41 41 40 39 38 39 39 39 39 39 39
39 40 38 38 30 25 28 28 30 32 32 27 21 18 20 20 21 20 19 16 16 17 16 15 13 13 15 16 16 18 20 21 24 25 27 29 32 34 37 39 41 42 41 41 41 42 43 44 45 45 45 44 44 43
31 31 30 30 33 35 38 37 34 31 25 25 25 22 20 21 22 20 16 16 18 16 15 15 14 14 15 15 17 18 18 20 22 25 28 31 35 37 38 40 41 43 45 46 46 46 45 44 43 43 42 42 41 41
29 28 30 34 38 37 33 27 22 22 21 22 23 22 20 20 19 17 16 16 15 14 15 14 14 13 12 14 16 18 20 22 26 29 30 33 36 39 42 44 44 44 42 42 42 43 43 43 43 43 43 43 42 42
26 27 30 31 30 26 21 17 17 14 13 16 19 18 18 18 16 13 11 14 15 14 14 14 14 15 16 18 18 18 20 23 27 31 35 38 38 38 38 38 39 41 42 43 43 44 45 46 46 45 45 45 44 44
24 24 24 23 20 18 16 16 16 16 17 18 18 19 19 15 11 10 14 15 15 15 14 14 13 13 14 16 18 22 25 28 29 29 30 31 32 34 36 39 41 43 45 46 47 48 47 47 46 45 44 43 41 40
20 20 18 18 17 16 17 17 16 14 13 13 14 13 13 12 11 14 14 14 13 13 11 11 13 14 17 20 22 23 23 24 25 25 27 30 33 36 40 44 46 48 48 47 46 44 42 41 39 37 35 34 32 31
16 16 16 17 16 16 14 13 11 10 12 13 13 14 13 12 13 13 13 12 10 10 11 12 14 17 20 21 22 23 23 24 25 26 29 33 38 42 47 51 53 49 44 40 38 36 34 32 30 30 29 29 29 29
13 15 16 15 14 14 13 13 13 14 13 13 14 14 13 13 13 12 10 10 10 10 11 13 16 18 21 22 23 23 24 25 26 28 32 36 41 48 53 54 48 42 38 35 32 30 28 27 27 27 27 26 26 27
16 18 18 18 16 15 16 16 16 15 14 13 14 14 15 13 12 11 10 10 10 11 12 14 16 20 22 23 24 25 26 27 28 31 34 40 45 51 54 49 41 36 33 31 29 27 25 25 24 24 24 24 24 24
22 23 23 22 20 21 19 18 17 17 16 16 15 15 13 13 12 11 10 11 12 13 14 15 17 19 22 25 27 28 28 30 31 34 37 42 47 52 51 43 37 32 29 27 25 24 23 23 23 23 23 23 24 25
26 25 24 24 22 20 19 19 18 18 18 16 16 15 14 13 12 11 11 11 13 14 15 16 18 20 23 25 27 28 29 31 33 35 38 42 47 50 46 39 34 30 28 26 24 23 22 22 22 22 22 23 23 24
Wind_Direction
208 205 202 202 205 204 203 198 197 201 199 183 177 185 180 182 188 190 192 202 200 213 228 257 306 328 337 344 353 354 345 346 337 195 211 246 242 338 341 330 339 354 346 251 302 357 338 328 349 328 299 318 288 310
213 206 203 200 201 198 197 197 198 204 192 180 183 182 183 187 189 190 196 204 200 210 225 248 303 333 338 346 351 354 345 344 323 197 217 260 228 331 358 349 311 326 351 358 5 351 349 358 1 333 352 8 44 67
220 218 210 204 201 196 198 198 203 200 183 184 185 183 187 191 190 191 202 199 209 215 226 251 297 325 339 344 346 353 332 337 274 219 238 257 245 280 324 341 339 334 319 313 326 319 321 335 346 15 11 44 54 55
215 217 216 208 206 201 202 204 203 188 186 187 184 185 191 190 194 198 196 207 215 224 237 253 291 321 335 335 343 350 320 317 296 246 235 247 250 257 294 330 333 327 296 315 299 305 309 325 325 323 345 21 26 17
207 210 216 215 207 209 206 205 199 189 189 186 189 186 192 195 196 202 202 211 221 228 238 260 288 320 327 334 339 343 324 301 282 275 236 236 238 243 272 313 336 332 312 319 313 307 289 274 310 338 348 355 320 324
198 200 203 211 208 206 205 206 195 192 189 189 190 189 194 197 200 204 208 219 229 235 250 256 288 316 326 329 339 336 321 303 284 264 239 229 228 230 259 306 330 330 321 308 313 312 316 294 303 310 315 314 315 321
196 196 195 199 206 199 203 206 198 191 189 193 191 193 195 201 204 209 214 222 232 243 251 270 286 315 321 327 335 333 320 310 290 254 226 222 226 224 249 281 317 327 310 304 299 309 298 308 291 300 310 311 315 323
198 193 194 191 193 195 196 198 195 193 190 194 193 194 198 202 208 212 220 228 235 244 254 270 285 310 320 326 334 333 328 332 293 234 207 222 224 226 243 265 296 318 317 309 312 305 303 302 296 304 312 314 313 313
198 192 192 190 192 193 194 194 194 193 196 195 198 199 200 205 214 214 224 232 238 243 254 267 282 303 314 321 326 327 333 9 111 145 217 227 236 235 242 261 280 305 313 314 303 296 298 295 293 299 305 308 310 315
196 194 189 193 196 194 196 192 195 201 199 199 201 202 206 211 215 216 226 232 238 243 252 259 277 294 305 312 319 312 309 168 166 255 237 251 254 244 248 265 282 301 308 304 304 306 303 303 306 307 308 311 312 313
196 193 190 194 201 200 198 198 191 194 198 201 207 206 211 214 215 223 225 233 240 245 247 254 269 284 292 300 310 299 266 210 228 258 237 235 245 260 260 270 284 300 305 304 306 306 306 310 311 314 311 310 312 314
199 194 191 197 203 204 197 202 202 199 198 202 204 208 214 215 223 226 228 236 244 250 244 252 268 279 283 288 293 295 258 238 239 240 253 245 262 260 266 276 285 298 301 300 304 303 303 303 305 302 303 305 308 308
197 199 196 198 206 207 200 200 203 199 202 203 203 205 209 218 222 228 234 243 252 246 239 252 266 273 278 280 282 286 276 251 245 242 250 252 254 258 264 278 286 297 302 303 307 304 306 306 303 302 301 303 303 304
197 198 200 201 205 209 203 205 209 208 207 208 210 213 214 219 226 232 239 243 240 242 251 259 260 265 273 277 281 288 275 254 247 248 255 264 263 264 269 279 287 295 299 297 300 302 303 303 302 301 300 297 297 300
196 197 199 201 206 207 206 208 211 214 216 217 217 219 221 227 231 237 239 237 242 251 252 249 254 264 271 279 288 285 269 255 248 252 263 266 265 261 270 279 285 289 290 290 294 297 299 299 296 296 298 302 304 305
196 195 194 197 200 204 208 207 208 212 215 217 220 224 227 230 232 233 238 241 241 244 244 254 255 259 259 274 288 277 263 241 238 263 263 269 273 279 282 280 279 281 283 286 292 292 292 291 297 303 308 307 304 301
190 190 188 181 175 184 196 195 203 206 208 211 214 219 223 227 233 236 238 236 240 242 239 246 241 246 261 275 269 255 246 240 254 261 261 268 279 289 289 284 280 284 286 288 288 290 290 292 299 303 307 307 304 300
176 176 173 177 178 187 192 201 209 214 218 221 223 226 229 231 234 238 237 232 229 233 234 232 236 249 256 263 251 245 267 263 256 257 261 270 281 286 288 288 289 287 287 289 290 293 299 304 304 307 311 312 310 304
165 166 166 177 186 190 200 207 209 211 211 214 217 222 227 231 228 227 223 221 221 225 219 230 239 249 261 262 256 240 240 246 251 258 266 276 284 289 292 292 290 291 294 296 298 301 304 306 308 310 311 311 318 313
148 161 170 171 187 197 204 208 208 208 206 205 201 199 185 197 209 209 207 207 207 217 224 232 253 262 255 258 262 251 241 243 249 257 269 279 284 289 292 294 297 298 299 300 302 303 304 306 307 306 305 308 307 308
155 156 153 171 182 200 202 202 204 202 196 191 187 189 192 198 198 190 195 204 208 214 241 262 260 258 260 264 270 258 248 247 252 262 270 274 280 283 287 291 294 296 298 299 300 302 304 304 303 301 301 300 300 299
168 170 177 184 193 201 202 196 186 179 175 173 175 179 182 177 187 197 202 207 222 243 256 259 260 268 270 268 269 264 257 257 263 269 277 282 284 285 289 293 296 297 297 298 299 299 298 298 297 297 296 295 295 295
170 172 175 181 182 174 168 165 160 156 156 154 157 170 183 192 204 206 212 218 231 247 247 249 257 266 273 275 272 268 264 265 269 273 277 282 287 292 294 295 295 296 297 297 296 296 297 296 296 296 295 295 294 293
147 152 160 165 157 151 149 148 146 144 143 154 168 183 196 204 211 216 218 230 242 244 246 253 262 269 273 276 274 273 273 274 278 282 286 288 290 292 293 295 296 297 297 298 298 298 297 297 296 295 294 294 293 293
134 137 144 144 146 146 143 141 144 154 159 170 181 191 201 209 216 224 221 229 241 251 260 266 270 272 273 271 273 275 279 282 284 287 290 292 294 296 298 300 300 300 301 299 299 298 297 296 296 295 294 293 292 292
129 140 144 145 150 154 158 162 156 159 176 194 196 201 215 221 226 220 217 235 250 259 264 267 269 274 276 279 283 287 290 293 295 296 297 299 300 302 303 303 303 303 302 301 300 298 297 295 294 293 292 291 291 290
134 136 139 144 151 161 168 176 181 188 202 207 212 216 221 223 217 219 227 238 248 259 266 273 276 280 287 293 296 298 299 299 300 303 306 309 310 312 313 312 311 308 305 302 299 298 296 295 294 293 292 291 291 291
147 150 154 160 166 180 188 197 202 206 207 203 205 209 211 216 219 228 235 237 253 266 268 278 288 295 301 303 305 307 308 310 312 315 317 319 321 322 321 320 317 313 309 305 302 300 298 296 295 294 293 292 292 292
165 175 177 181 185 189 192 198 198 201 207 209 212 222 224 226 227 231 247 260 260 267 280 289 299 309 314 315 316 315 315 317 319 321 322 325 326 329 328 326 321 317 313 310 308 305 302 300 299 298 297 296 295 293
192 200 197 196 201 203 205 208 212 219 224 228 227 230 232 233 244 251 249 252 263 274 287 302 311 320 323 322 317 315 314 316 317 321 326 330 332 332 332 327 323 320 317 314 311 307 304 302 301 301 301 301 299 299
214 220 222 221 220 222 227 226 231 235 240 237 230 236 240 245 243 242 247 254 268 283 292 303 319 327 325 323 320 316 314 314 317 321 326 331 333 334 332 329 326 324 322 320 317 314 309 307 305 305 305 305 305 304
229 232 235 235 237 240 245 251 249 243 233 234 238 237 231 232 233 238 249 265 277 284 291 304 320 327 328 328 324 318 311 311 313 318 323 327 332 334 334 331 328 326 325 326 326 323 320 316 312 309 308 307 306 306
230 230 233 236 238 239 243 243 238 236 234 230 228 230 226 224 228 244 257 266 276 283 292 302 310 318 328 333 331 324 318 314 316 319 324 328 333 336 335 332 329 327 326 324 323 323 321 320 318 317 315 313 312 310